Saint-Yan, France

2:49 AM CEST on May 23, 2017 (GMT +0200)
Saint Yan

Weather History for LFLN - February, 2013

Change the Weather History Date:

Friday, February 8, 2013

  Actual Average Record
Temperature  
Mean Temperature 32 °F -  
Max Temperature 39 °F - - ()
Min Temperature 24 °F - - ()
Degree Days  
Heating Degree Days 34    
Moisture  
Dew Point 29 °F    
Average Humidity 91    
Maximum Humidity 100    
Minimum Humidity 65    
Precipitation  
Precipitation 0.00 in - - ()
Sea Level Pressure  
Sea Level Pressure 29.99 in    
Wind  
Wind Speed 2 mph ()    
Max Wind Speed 9 mph    
Max Gust Speed -    
Visibility 5.0 miles    
Events Fog , Rain , Snow    
T = Trace of Precipitation, MM = Missing Value Source: Averaged Metar Reports

Daily Weather History Graph

Daily Weather History Graph

Search for Another Location

Airport or City:

Trip Planner

Search our weather history database for the weather conditions in past years. The results will help you decide how hot, cold, wet, or windy it might be!

Date:

Astronomy

Feb. 08, 2013 Rise Set
Actual Time 7:57 AM CET 5:58 PM CET
Civil Twilight 7:26 AM CET 6:30 PM CET
Nautical Twilight 6:50 AM CET 7:06 PM CET
Astronomical Twilight 6:15 AM CET 7:41 PM CET
Moon 6:18 AM CET (2/8) 4:11 PM CET (2/8)
Length of Visible Light 11h 04m
Length of Day
10h 01m
Waning Crescent, 5% of the Moon is Illuminated
Feb 8
Waning Crescent
Feb 10
New
Feb 17
First Quarter
Feb 25
Full
Mar 4
Last Quarter

Hourly Weather History & Observations

Time (CET) Temp. Windchill Dew Point Humidity Pressure Visibility Wind Dir Wind Speed Gust Speed Precip Events Conditions
12:00 AM 32.0 °F 28.7 °F 30.2 °F 93% 30.01 in 6.2 mi WSW 3.5 mph - N/A   Overcast
12:30 AM 30.2 °F - 30.2 °F 100% 30.01 in 6.2 mi Calm Calm - N/A   Overcast
1:00 AM 30.2 °F - 30.2 °F 100% 30.01 in 5.6 mi Calm Calm - N/A   Unknown
1:30 AM 30.2 °F - 30.2 °F 100% 30.01 in 6.2 mi Variable 2.3 mph - N/A   Overcast
2:00 AM 30.2 °F - 28.4 °F 93% 29.98 in 6.2 mi Calm Calm - N/A   Overcast
2:30 AM 30.2 °F - 30.2 °F 100% 29.98 in 6.2 mi SSE 1.2 mph - N/A   Overcast
3:00 AM 28.4 °F - 28.4 °F 100% 29.98 in 4.3 mi SSE 2.3 mph - N/A   Unknown
3:30 AM 26.6 °F - 26.6 °F 100% 29.95 in 1.4 mi Calm Calm - N/A   Mist
4:00 AM 28.4 °F - 28.4 °F 100% 29.95 in 5.6 mi SE 2.3 mph - N/A   Unknown
4:30 AM 24.8 °F - 24.8 °F 100% 29.95 in 3.1 mi South 2.3 mph - N/A   Mostly Cloudy
5:00 AM 26.6 °F - 26.6 °F 100% 29.95 in 5.6 mi SSW 1.2 mph - N/A   Mostly Cloudy
5:30 AM 26.6 °F - 26.6 °F 100% 29.95 in 5.6 mi South 2.3 mph - N/A   Overcast
6:00 AM 28.4 °F 24.6 °F 28.4 °F 100% 29.95 in 6.2 mi South 3.5 mph - N/A   Overcast
6:30 AM 28.4 °F 24.6 °F 28.4 °F 100% 29.95 in 6.2 mi South 3.5 mph - N/A   Overcast
7:00 AM 28.4 °F 23.3 °F 28.4 °F 100% 29.95 in 6.2 mi South 4.6 mph - N/A   Overcast
7:30 AM 28.4 °F 24.6 °F 28.4 °F 100% 29.95 in 5.6 mi South 3.5 mph - N/A   Overcast
8:00 AM 30.2 °F 26.7 °F 28.4 °F 93% 29.95 in 3.1 mi South 3.5 mph - N/A Snow Light Snow
8:30 AM 30.2 °F - 30.2 °F 100% 29.95 in - Variable 2.3 mph - N/A Snow Light Snow
9:00 AM 30.2 °F - 30.2 °F 100% 29.95 in 0.6 mi South 2.3 mph - N/A Fog , Snow Snow
9:30 AM 30.2 °F - 30.2 °F 100% 29.95 in 0.3 mi South 2.3 mph - N/A Fog , Snow Heavy Snow
10:00 AM 32.0 °F - 30.2 °F 93% 29.95 in 1.1 mi SSW 1.2 mph - N/A Snow Light Snow
10:30 AM 32.0 °F - 30.2 °F 93% 29.95 in - SW 1.2 mph - N/A Rain Rain
11:00 AM 32.0 °F - 32.0 °F 100% 29.98 in - Calm Calm - N/A   Overcast
11:30 AM 32.0 °F - 32.0 °F 100% 29.98 in - Variable 1.2 mph - N/A   Mostly Cloudy
12:00 PM 32.0 °F 28.7 °F 32.0 °F 100% 29.98 in - North 3.5 mph - N/A   Mostly Cloudy
1:30 PM 35.6 °F 30.7 °F 30.2 °F 81% 29.98 in 6.2 mi NE 5.8 mph - N/A   Overcast
2:00 PM 35.6 °F 29.9 °F 28.4 °F 75% 29.98 in 6.2 mi ENE 6.9 mph - N/A   Partly Cloudy
2:30 PM 37.4 °F 33.8 °F 28.4 °F 70% 29.98 in 6.2 mi ENE 4.6 mph - N/A   Partly Cloudy
3:00 PM 39.2 °F - 28.4 °F 65% 29.98 in 6.2 mi Variable 2.3 mph - N/A   Mostly Cloudy
3:30 PM 37.4 °F - 26.6 °F 65% 29.98 in 6.2 mi Variable 2.3 mph - N/A   Mostly Cloudy
4:00 PM 37.4 °F 33.8 °F 28.4 °F 70% 30.01 in 6.2 mi WNW 4.6 mph - N/A   Mostly Cloudy
4:30 PM 37.4 °F 32.8 °F 30.2 °F 75% 30.01 in 6.2 mi WNW 5.8 mph - N/A   Mostly Cloudy
5:00 PM 35.6 °F 31.7 °F 24.8 °F 65% 30.01 in 6.2 mi North 4.6 mph - N/A   Scattered Clouds
5:30 PM 33.8 °F 27.7 °F 24.8 °F 70% 30.01 in 6.2 mi North 6.9 mph - N/A   Unknown
6:00 PM 32.0 °F 28.7 °F 24.8 °F 75% 30.01 in 6.2 mi North 3.5 mph - N/A   Partly Cloudy
6:30 PM 32.0 °F 28.7 °F 26.6 °F 80% 30.04 in 6.2 mi NNW 3.5 mph - N/A   Unknown
7:00 PM 32.0 °F - 26.6 °F 80% 30.04 in 6.2 mi Variable 1.2 mph - N/A   Unknown
7:30 PM 32.0 °F - 26.6 °F 80% 30.04 in 6.2 mi NNW 2.3 mph - N/A   Unknown
8:00 PM 28.4 °F 24.6 °F 26.6 °F 93% 30.04 in 6.2 mi WNW 3.5 mph - N/A   Mostly Cloudy
8:30 PM 30.2 °F - 28.4 °F 93% 30.06 in 6.2 mi Calm Calm - N/A   Overcast
9:00 PM 32.0 °F 28.7 °F 28.4 °F 87% 30.06 in 6.2 mi West 3.5 mph - N/A   Overcast
9:30 PM 32.0 °F 27.5 °F 30.2 °F 93% 30.06 in - North 4.6 mph - N/A Fog , Snow Heavy Snow
10:00 PM 32.0 °F 24.2 °F 30.2 °F 93% 30.06 in 0.9 mi NW 9.2 mph - N/A Snow Light Snow
10:30 PM 30.2 °F - 30.2 °F 100% 30.06 in 0.3 mi NW 2.3 mph - N/A Fog , Snow Light Snow
11:00 PM 28.4 °F 24.6 °F 28.4 °F 100% 30.09 in - WNW 3.5 mph - N/A   Overcast
11:30 PM 30.2 °F 26.7 °F 28.4 °F 93% 30.09 in 2.5 mi WNW 3.5 mph - N/A   Mostly Cloudy